Great Bend, KS

8:45 PM CDT on March 22, 2017 (GMT -0500)
Great Bend Municipal

Weather History for KGBD - June, 2013

Change the Weather History Date:

Friday, June 14, 2013

  Actual Average Record
Temperature  
Mean Temperature 83 °F -  
Max Temperature 98 °F 90 °F 104 °F (1980)
Min Temperature 68 °F 63 °F 49 °F (1969)
Cooling Degree Days 18    
Growing Degree Days 33 (Base 50)    
Moisture  
Dew Point 61 °F    
Average Humidity 51    
Maximum Humidity 88    
Minimum Humidity 21    
Precipitation  
Precipitation 0.00 in - - ()
Sea Level Pressure  
Sea Level Pressure 29.89 in    
Wind  
Wind Speed 17 mph (South)    
Max Wind Speed 29 mph    
Max Gust Speed 37 mph    
Visibility 10 miles    
Events      
Averages and records for this station are not official NWS values.
T = Trace of Precipitation, MM = Missing Value Source: NWS Daily Summary

Daily Weather History Graph

Daily Weather History Graph

Search for Another Location

Airport or City:

Trip Planner

Search our weather history database for the weather conditions in past years. The results will help you decide how hot, cold, wet, or windy it might be!

Date:

Astronomy

Jun. 14, 2013 Rise Set
Actual Time 6:11 AM CDT 9:00 PM CDT
Civil Twilight 5:39 AM CDT 9:32 PM CDT
Nautical Twilight 4:59 AM CDT 10:11 PM CDT
Astronomical Twilight 4:14 AM CDT 10:57 PM CDT
Moon 11:43 AM CDT (6/14) 12:10 AM CDT (6/14)
Length of Visible Light 15h 52m
Length of Day
14h 49m
Waxing Crescent, 30% of the Moon is Illuminated
Jun 14
Waxing Crescent
Jun 16
First Quarter
Jun 23
Full
Jun 29
Last Quarter
Jul 8
New

Hourly Weather History & Observations

Time (CDT) Temp. Heat Index Dew Point Humidity Pressure Visibility Wind Dir Wind Speed Gust Speed Precip Events Conditions
12:15 AM 75.2 °F - 64.4 °F 69% 29.97 in 10.0 mi SE 15.0 mph - N/A   Clear
12:35 AM 73.4 °F - 64.4 °F 73% 29.97 in 10.0 mi SE 15.0 mph - N/A   Clear
12:55 AM 73.4 °F - 64.4 °F 73% 29.97 in 10.0 mi SE 17.3 mph - N/A   Clear
1:15 AM 73.4 °F - 64.4 °F 73% 29.97 in 10.0 mi SE 17.3 mph - N/A   Clear
1:35 AM 73.4 °F - 64.4 °F 73% 29.96 in 10.0 mi SE 17.3 mph - N/A   Clear
1:55 AM 73.4 °F - 64.4 °F 73% 29.97 in 10.0 mi SE 16.1 mph - N/A   Clear
2:15 AM 73.4 °F - 64.4 °F 73% 29.96 in 10.0 mi SE 13.8 mph - N/A   Clear
2:35 AM 71.6 °F - 64.4 °F 78% 29.96 in 10.0 mi SE 12.7 mph - N/A   Clear
2:55 AM 71.6 °F - 64.4 °F 78% 29.95 in 10.0 mi SE 13.8 mph - N/A   Clear
3:15 AM 71.6 °F - 64.4 °F 78% 29.94 in 10.0 mi SSE 16.1 mph - N/A   Clear
3:35 AM 69.8 °F - 64.4 °F 83% 29.94 in 10.0 mi SE 15.0 mph - N/A   Clear
3:55 AM 69.8 °F - 64.4 °F 83% 29.93 in 10.0 mi SSE 16.1 mph - N/A   Clear
4:15 AM 69.8 °F - 64.4 °F 83% 29.93 in 10.0 mi SSE 15.0 mph - N/A   Clear
4:35 AM 69.8 °F - 64.4 °F 83% 29.93 in 10.0 mi SSE 13.8 mph - N/A   Clear
4:55 AM 69.8 °F - 64.4 °F 83% 29.93 in 10.0 mi SSE 13.8 mph - N/A   Clear
5:15 AM 69.8 °F - 64.4 °F 83% 29.94 in 10.0 mi SSE 8.1 mph - N/A   Clear
5:35 AM 68.0 °F - 64.4 °F 88% 29.93 in 10.0 mi SSE 12.7 mph - N/A   Clear
5:55 AM 69.8 °F - 64.4 °F 83% 29.94 in 10.0 mi SSE 11.5 mph - N/A   Clear
6:15 AM 69.8 °F - 64.4 °F 83% 29.93 in 10.0 mi South 9.2 mph - N/A   Clear
6:35 AM 69.8 °F - 64.4 °F 83% 29.93 in 10.0 mi South 11.5 mph - N/A   Clear
6:55 AM 69.8 °F - 64.4 °F 83% 29.92 in 10.0 mi SSE 13.8 mph - N/A   Clear
7:15 AM 69.8 °F - 64.4 °F 83% 29.92 in 10.0 mi South 13.8 mph - N/A   Clear
7:35 AM 71.6 °F - 66.2 °F 83% 29.92 in 10.0 mi South 17.3 mph - N/A   Clear
7:55 AM 73.4 °F - 66.2 °F 78% 29.92 in 10.0 mi South 17.3 mph - N/A   Clear
8:15 AM 75.2 °F - 66.2 °F 73% 29.93 in 10.0 mi South 17.3 mph 24.2 mph N/A   Clear
8:35 AM 78.8 °F - 68.0 °F 69% 29.92 in 10.0 mi South 17.3 mph 21.9 mph N/A   Clear
8:55 AM 80.6 °F 82.7 °F 66.2 °F 61% 29.92 in 10.0 mi South 16.1 mph 21.9 mph N/A   Clear
9:15 AM 82.4 °F 84.6 °F 66.2 °F 58% 29.92 in 10.0 mi SSW 19.6 mph 25.3 mph N/A   Clear
9:35 AM 84.2 °F 86.6 °F 66.2 °F 55% 29.92 in 10.0 mi SSW 17.3 mph - N/A   Clear
9:55 AM 84.2 °F 86.6 °F 66.2 °F 55% 29.92 in 10.0 mi SSW 16.1 mph 25.3 mph N/A   Clear
10:15 AM 87.8 °F 90.4 °F 66.2 °F 49% 29.92 in 10.0 mi SSW 15.0 mph 25.3 mph N/A   Clear
10:35 AM 87.8 °F 90.4 °F 66.2 °F 49% 29.91 in 10.0 mi SSW 18.4 mph 25.3 mph N/A   Clear
10:55 AM 89.6 °F 92.2 °F 66.2 °F 46% 29.90 in 10.0 mi South 19.6 mph - N/A   Clear
11:15 AM 91.4 °F 93.2 °F 64.4 °F 41% 29.90 in 10.0 mi SSW 19.6 mph 27.6 mph N/A   Clear
11:35 AM 91.4 °F 93.2 °F 64.4 °F 41% 29.89 in 10.0 mi SSW 20.7 mph 27.6 mph N/A   Clear
11:55 AM 93.2 °F 94.9 °F 64.4 °F 38% 29.88 in 10.0 mi SSW 27.6 mph 32.2 mph N/A   Clear
12:15 PM 95.0 °F 96.0 °F 62.6 °F 34% 29.88 in 10.0 mi SSW 23.0 mph 32.2 mph N/A   Clear
12:35 PM 96.8 °F 97.1 °F 60.8 °F 30% 29.87 in 10.0 mi South 27.6 mph 34.5 mph N/A   Clear
12:55 PM 96.8 °F 97.1 °F 60.8 °F 30% 29.87 in 10.0 mi South 21.9 mph 35.7 mph N/A   Clear
1:15 PM 96.8 °F 97.1 °F 60.8 °F 30% 29.87 in 10.0 mi SSW 28.8 mph 33.4 mph N/A   Clear
1:35 PM 98.6 °F 99.4 °F 60.8 °F 29% 29.87 in 10.0 mi SSW 24.2 mph 34.5 mph N/A   Clear
1:55 PM 98.6 °F 97.6 °F 57.2 °F 25% 29.86 in 10.0 mi SSW 24.2 mph 35.7 mph N/A   Clear
2:15 PM 98.6 °F 97.6 °F 57.2 °F 25% 29.86 in 10.0 mi SSW 26.5 mph 33.4 mph N/A   Clear
2:35 PM 98.6 °F 98.5 °F 59.0 °F 27% 29.85 in 10.0 mi South 21.9 mph 33.4 mph N/A   Clear
2:55 PM 98.6 °F 98.5 °F 59.0 °F 27% 29.84 in 10.0 mi South 26.5 mph 36.8 mph N/A   Clear
3:15 PM 98.6 °F 97.6 °F 57.2 °F 25% 29.83 in 10.0 mi SSW 24.2 mph 32.2 mph N/A   Clear
3:35 PM 98.6 °F 97.6 °F 57.2 °F 25% 29.83 in 10.0 mi South 26.5 mph 36.8 mph N/A   Clear
3:55 PM 98.6 °F 97.2 °F 55.4 °F 24% 29.82 in 10.0 mi South 28.8 mph 34.5 mph N/A   Clear
4:15 PM 98.6 °F 96.4 °F 53.6 °F 22% 29.81 in 10.0 mi South 26.5 mph 36.8 mph N/A   Clear
4:35 PM 98.6 °F 96.4 °F 53.6 °F 22% 29.81 in 10.0 mi SSW 28.8 mph 34.5 mph N/A   Clear
4:55 PM 98.6 °F 96.4 °F 53.6 °F 22% 29.80 in 10.0 mi SSW 24.2 mph 32.2 mph N/A   Clear
5:15 PM 98.6 °F - 51.8 °F 21% 29.80 in 10.0 mi South 24.2 mph 34.5 mph N/A   Clear
5:35 PM 98.6 °F 96.4 °F 53.6 °F 22% 29.80 in 10.0 mi South 24.2 mph 33.4 mph N/A   Clear
5:55 PM 98.6 °F 96.4 °F 53.6 °F 22% 29.80 in 10.0 mi South 24.2 mph 31.1 mph N/A   Clear
6:15 PM 96.8 °F 95.1 °F 55.4 °F 25% 29.80 in 10.0 mi SSW 23.0 mph 33.4 mph N/A   Clear
6:35 PM 96.8 °F 95.1 °F 55.4 °F 25% 29.81 in 10.0 mi South 21.9 mph 35.7 mph N/A   Clear
6:55 PM 96.8 °F 94.4 °F 53.6 °F 23% 29.82 in 10.0 mi South 23.0 mph 29.9 mph N/A   Clear
7:15 PM 95.0 °F 92.7 °F 53.6 °F 25% 29.82 in 10.0 mi South 24.2 mph 34.5 mph N/A   Clear
7:35 PM 91.4 °F 89.9 °F 57.2 °F 31% 29.83 in 10.0 mi South 23.0 mph 33.4 mph N/A   Clear
7:55 PM 89.6 °F 88.1 °F 57.2 °F 33% 29.84 in 10.0 mi South 19.6 mph 28.8 mph N/A   Clear
8:15 PM 89.6 °F 88.1 °F 57.2 °F 33% 29.85 in 10.0 mi South 17.3 mph 26.5 mph N/A   Clear
8:35 PM 87.8 °F 86.5 °F 57.2 °F 35% 29.85 in 10.0 mi South 20.7 mph 25.3 mph N/A   Clear
8:55 PM 86.0 °F 84.5 °F 55.4 °F 35% 29.85 in 10.0 mi South 16.1 mph 21.9 mph N/A   Clear
9:15 PM 84.2 °F 83.0 °F 55.4 °F 37% 29.86 in 10.0 mi South 15.0 mph 20.7 mph N/A   Clear
9:35 PM 84.2 °F 83.5 °F 57.2 °F 40% 29.87 in 10.0 mi SSW 13.8 mph 19.6 mph N/A   Clear
9:55 PM 82.4 °F 82.5 °F 59.0 °F 45% 29.87 in 10.0 mi SSW 12.7 mph 20.7 mph N/A   Clear
10:15 PM 82.4 °F 82.9 °F 60.8 °F 48% 29.88 in 10.0 mi SSW 13.8 mph - N/A   Clear
10:35 PM 82.4 °F 82.9 °F 60.8 °F 48% 29.89 in 10.0 mi SSW 12.7 mph 19.6 mph N/A   Clear
10:55 PM 80.6 °F 81.1 °F 59.0 °F 48% 29.90 in 10.0 mi SSW 13.8 mph 18.4 mph N/A   Clear
11:15 PM 80.6 °F 80.8 °F 57.2 °F 45% 29.90 in 10.0 mi SSW 13.8 mph 19.6 mph N/A   Clear
11:35 PM 80.6 °F 80.8 °F 57.2 °F 45% 29.91 in 10.0 mi South 10.4 mph - N/A   Clear
11:55 PM 78.8 °F - 57.2 °F 47% 29.91 in 10.0 mi South 10.4 mph - N/A   Clear